TimeMST,TemperatureF,Dew PointF,Humidity,Sea Level PressureIn,VisibilityMPH,Wind Direction,Wind SpeedMPH,Gust SpeedMPH,PrecipitationIn,Events,Conditions,WindDirDegrees,DateUTC
12:53 AM,33.1,24.1,70,30.17,10.0,South,6.9,-,N/A,,Clear,190,2013-02-01 07:53:00
1:53 AM,32.0,24.1,73,30.17,10.0,SSW,4.6,-,N/A,,Clear,200,2013-02-01 08:53:00
2:53 AM,30.0,24.1,79,30.17,10.0,South,4.6,-,N/A,,Clear,190,2013-02-01 09:53:00
3:53 AM,28.9,23.0,78,30.17,10.0,South,5.8,-,N/A,,Clear,190,2013-02-01 10:53:00
4:53 AM,28.9,21.9,75,30.18,10.0,South,6.9,-,N/A,,Clear,190,2013-02-01 11:53:00
5:53 AM,28.0,21.0,75,30.19,10.0,SSW,3.5,-,N/A,,Clear,200,2013-02-01 12:53:00
6:53 AM,26.1,21.0,81,30.22,10.0,SSW,3.5,-,N/A,,Clear,210,2013-02-01 13:53:00
7:53 AM,28.0,21.0,75,30.25,10.0,South,3.5,-,N/A,,Clear,190,2013-02-01 14:53:00
8:53 AM,35.1,25.0,67,30.25,10.0,Calm,Calm,-,N/A,,Clear,0,2013-02-01 15:53:00
9:53 AM,39.9,28.0,63,30.24,10.0,NNW,4.6,-,N/A,,Clear,330,2013-02-01 16:53:00
10:53 AM,45.0,28.0,52,30.24,10.0,Calm,Calm,-,N/A,,Clear,0,2013-02-01 17:53:00
11:53 AM,51.1,27.0,39,30.22,10.0,Calm,Calm,-,N/A,,Clear,0,2013-02-01 18:53:00
12:53 PM,55.0,21.0,27,30.18,10.0,North,4.6,-,N/A,,Clear,360,2013-02-01 19:53:00
1:53 PM,59.0,9.0,14,30.14,10.0,North,5.8,-,N/A,,Clear,10,2013-02-01 20:53:00
2:53 PM,60.1,10.0,14,30.15,10.0,Variable,4.6,-,N/A,,Clear,0,2013-02-01 21:53:00
3:53 PM,62.1,17.1,18,30.13,10.0,NNE,4.6,-,N/A,,Clear,20,2013-02-01 22:53:00
4:53 PM,60.1,19.0,20,30.14,10.0,NNE,3.5,-,N/A,,Clear,20,2013-02-01 23:53:00
5:53 PM,55.9,21.0,26,30.15,10.0,Calm,Calm,-,N/A,,Clear,0,2013-02-02 00:53:00
6:53 PM,46.0,25.0,44,30.22,10.0,SSW,6.9,-,N/A,,Clear,200,2013-02-02 01:53:00
7:53 PM,44.1,26.1,49,30.24,10.0,South,8.1,-,N/A,,Clear,190,2013-02-02 02:53:00
8:53 PM,43.0,26.1,51,30.25,10.0,Calm,Calm,-,N/A,,Clear,0,2013-02-02 03:53:00
9:53 PM,37.0,26.1,65,30.25,10.0,South,6.9,-,N/A,,Clear,190,2013-02-02 04:53:00
10:53 PM,37.0,26.1,65,30.25,10.0,SSW,3.5,-,N/A,,Clear,210,2013-02-02 05:53:00
11:53 PM,36.0,25.0,64,30.25,10.0,South,4.6,-,N/A,,Clear,180,2013-02-02 06:53:00